Orbital Elements at Epoch 2459200.5 (2020-Dec-17.0) TDB
Reference: JPL 26 (heliocentric ecliptic J2000)
Element | Value | Uncertainty (1-sigma) | Units |
e | .2405534584670966 | 5.8485e-08 | |
a | 2.551203604567285 | 8.9877e-09 | au |
q | 1.937502754234902 | 1.5329e-07 | au |
i | 7.329622530545085 | 4.9989e-06 | deg |
node | 172.9541570640461 | 2.3533e-05 | deg |
peri | 174.5726608240448 | 2.5221e-05 | deg |
M | 99.63917332434936 | 8.408e-06 | deg |
tp | 2458788.550745229435 (2019-Nov-01.05074523) | 3.3416e-05 | TDB |
period | 1488.38781745655 4.07 | 7.8652e-06 2.153e-08 | d yr |
n | .2418724446530277 | 1.2781e-09 | deg/d |
Q | 3.164904454899669 | 1.115e-08 | au |
|
| | Orbit Determination Parameters
Additional Information
|